Wichita Falls, TX

5:38 PM CST on November 21, 2017 (GMT -0600)
Sheppard Air Force Base-Wichita Falls Municipal

Weather History for KSPS - March, 2013

Change the Weather History Date:

Monday, March 25, 2013

  Actual Average Record
Temperature  
Mean Temperature 38 °F 57 °F  
Max Temperature 52 °F 70 °F 91 °F (1976)
Min Temperature 23 °F 43 °F 23 °F (2013)
Degree Days  
Heating Degree Days 27 9  
Month to date heating degree days 326 307  
Since 1 July heating degree days 2542 2753  
Cooling Degree Days 0 1  
Month to date cooling degree days 10 11  
Year to date cooling degree days 15 14  
Moisture  
Dew Point 13 °F    
Average Humidity 46    
Maximum Humidity 74    
Minimum Humidity 18    
Precipitation  
Precipitation 0.00 in 0.07 in 1.90 in (1939)
Month to date precipitation 0.29 1.82  
Year to date precipitation 2.97 4.71  
Snow  
Snow 0.00 in 0.00 in - ()
Month to date snowfall 0.0 0.5  
Since 1 July snowfall 3.5 3.9  
Snow Depth -    
Sea Level Pressure  
Sea Level Pressure 30.35 in    
Wind  
Wind Speed 10 mph (NNW)    
Max Wind Speed 26 mph    
Max Gust Speed 32 mph    
Visibility 10 miles    
Events      
T = Trace of Precipitation, MM = Missing Value Source: NWS Daily Summary

Daily Weather History Graph

Daily Weather History Graph

Search for Another Location

Airport or City:

Trip Planner

Search our weather history database for the weather conditions in past years. The results will help you decide how hot, cold, wet, or windy it might be!

Date:

Astronomy

Mar. 25, 2013 Rise Set
Actual Time 7:30 AM CDT 7:49 PM CDT
Civil Twilight 7:05 AM CDT 8:14 PM CDT
Nautical Twilight 6:36 AM CDT 8:44 PM CDT
Astronomical Twilight 6:06 AM CDT 9:13 PM CDT
Moon 6:25 PM CDT (3/25) 6:10 AM CDT (3/25)
Length of Visible Light 13h 09m
Length of Day
12h 19m
Waxing Gibbous, 96% of the Moon is Illuminated
Mar 25
Waxing Gibbous
Mar 27
Full
Apr 2
Last Quarter
Apr 10
New
Apr 18
First Quarter

Hourly Weather History & Observations

Time (CDT) Temp. Windchill Dew Point Humidity Pressure Visibility Wind Dir Wind Speed Gust Speed Precip Events Conditions
12:52 AM 30.9 °F 25.2 °F 17.1 °F 57% 30.26 in 10.0 mi NNW 5.8 mph - N/A   Clear
1:52 AM 30.0 °F 24.1 °F 17.1 °F 59% 30.29 in 10.0 mi NW 5.8 mph - N/A   Clear
2:52 AM 28.9 °F 22.8 °F 16.0 °F 58% 30.29 in 10.0 mi NNW 5.8 mph - N/A   Clear
3:52 AM 30.0 °F 25.2 °F 17.1 °F 59% 30.27 in 10.0 mi NW 4.6 mph - N/A   Clear
4:52 AM 26.1 °F 21.9 °F 16.0 °F 66% 30.28 in 10.0 mi SSW 3.5 mph - N/A   Clear
5:52 AM 23.0 °F - 15.1 °F 72% 30.31 in 10.0 mi Calm Calm - N/A   Clear
6:52 AM 28.0 °F 19.3 °F 16.0 °F 61% 30.33 in 10.0 mi WNW 9.2 mph - N/A   Partly Cloudy
7:52 AM 28.0 °F 18.6 °F 17.1 °F 63% 30.35 in 10.0 mi WNW 10.4 mph - N/A   Partly Cloudy
8:52 AM 32.0 °F 23.6 °F 19.0 °F 59% 30.39 in 10.0 mi NW 10.4 mph - N/A   Partly Cloudy
9:52 AM 39.0 °F 29.9 °F 17.1 °F 41% 30.41 in 10.0 mi North 17.3 mph 24.2 mph N/A   Partly Cloudy
10:52 AM 42.1 °F 33.9 °F 12.9 °F 31% 30.42 in 10.0 mi North 17.3 mph 23.0 mph N/A   Partly Cloudy
11:52 AM 45.0 °F 37.9 °F 10.0 °F 24% 30.43 in 10.0 mi North 16.1 mph 23.0 mph N/A   Partly Cloudy
12:52 PM 48.0 °F - 8.1 °F 20% 30.40 in 10.0 mi North 19.6 mph 25.3 mph N/A   Partly Cloudy
1:52 PM 48.9 °F - 9.0 °F 20% 30.37 in 10.0 mi NW 19.6 mph 32.2 mph N/A   Clear
2:52 PM 48.9 °F - 10.9 °F 22% 30.36 in 10.0 mi NNW 19.6 mph 25.3 mph N/A   Clear
3:52 PM 51.1 °F - 10.9 °F 20% 30.34 in 10.0 mi NNW 13.8 mph 24.2 mph N/A   Clear
4:52 PM 51.1 °F - 10.0 °F 19% 30.33 in 10.0 mi North 16.1 mph 28.8 mph N/A   Clear
5:52 PM 50.0 °F - 9.0 °F 19% 30.33 in 10.0 mi NNW 15.0 mph 24.2 mph N/A   Partly Cloudy
6:52 PM 48.9 °F - 10.9 °F 22% 30.35 in 10.0 mi NNW 18.4 mph 23.0 mph N/A   Partly Cloudy
7:52 PM 44.1 °F 39.0 °F 12.0 °F 27% 30.37 in 10.0 mi North 9.2 mph - N/A   Partly Cloudy
8:52 PM 37.9 °F 33.5 °F 12.9 °F 36% 30.39 in 10.0 mi NNE 5.8 mph - N/A   Clear
9:52 PM 37.0 °F 33.3 °F 12.9 °F 37% 30.40 in 10.0 mi NNE 4.6 mph - N/A   Clear
10:52 PM 36.0 °F - 14.0 °F 41% 30.41 in 10.0 mi Calm Calm - N/A   Clear
11:52 PM 36.0 °F - 14.0 °F 41% 30.41 in 10.0 mi Calm Calm - N/A   Clear